Вернуться в каталог

STARLINK-31651

АктивенСвязьVLEO
NORAD 59860·PAYLOAD·🇺🇸 United States

Запущен May 24, 2024 с Cape Canaveral Space Force Station

Loading…

Ближайшие Пролёты (ближайшие 24 часа)

TLE

СвежийSource: CelesTrak SupGP

Эпоха: Sep 14, 2026, 21:11 UTC

1 59860C 24098C   26257.88312500 -.00006362  00000+0 -23042-3 0  2579
2 59860  43.0004 289.5234 0001532 266.2788 356.8050 15.27580504    19

Отслеживайте STARLINK-31651 в реальном времени с AllMySat

Download on the App Store